Location: Hope
(40.9110°N, 74.9680°W)
Time: 05:09:05
(UTC-04:00)

OTV 5 (USA 277) - Visible Passes

Search period start: 22 July 2018 00:00
Search period end: 01 August 2018 00:00
Orbit: 312 x 321 km, 54.5° (Epoch: 05 July)

Date Brightness Start Highest point End Pass type
(mag) Time Alt. Az. Time Alt. Az. Time Alt. Az.
29 Jul ? 04:35:23 18° S 04:36:44 27° SE 04:39:05 10° ENE visible
30 Jul ? 04:49:27 21° SW 04:51:05 89° SE 04:53:47 10° NE visible
31 Jul ? 03:32:35 13° E 03:32:35 13° E 03:33:16 10° E visible
31 Jul ? 05:03:28 12° W 05:05:35 31° NW 05:08:03 10° NNE visible
